This demonstration page uses our WeatherBlox Daily Observations layout. Learn more.

Left ArrowRight Arrow

38.20091, -84.87328

Hourly Observations for July 27, 2021

Temp ( °F °C ) Dew Point ( °F °C ) Humidity (%) Winds ( mph kmh ) Pressure ( in mb ) Visibility ( mi km ) Precip ( " mm )
12:53 am 00:53 Clear 78 25.6 65 18.3 64 64 NNE 3 6 30.01 1016 10 16 0.00 0.00
1:53 am 01:53 Mostly Clear 71 21.7 65 18.3 81 81 Calm 30.01 1016 10 16 0.00 0.00
2:53 am 02:53 Mostly Clear 71 21.7 65 18.3 81 81 Calm 30.00 1016 10 16 0.00 0.00
3:53 am 03:53 Clear 69 20.6 65 18.3 87 87 N 3 6 30.00 1016 10 16 0.00 0.00
4:53 am 04:53 Mostly Clear 68 20 64 17.8 87 87 Calm 30.00 1016 10 16 0.00 0.00
5:53 am 05:53 Clear 68 20 64 17.8 87 87 Calm 30.01 1016 10 16 0.00 0.00
6:53 am 06:53 Sunny 67 19.4 64 17.8 91 91 N 3 6 30.01 1016 10 16 0.00 0.00
7:53 am 07:53 Sunny 70 21.1 65 18.3 84 84 N 3 6 30.02 1017 10 16 0.00 0.00
8:53 am 08:53 Sunny 76 24.4 65 18.3 69 69 E 3 6 30.03 1017 10 16 0.00 0.00
9:53 am 09:53 Sunny 81 27.2 65 18.3 58 58 E 3 6 30.04 1017 10 16 0.00 0.00
10:53 am 10:53 Sunny 84 28.9 65 18.3 53 53 VRB 5 7 30.04 1017 10 16 0.00 0.00
11:53 am 11:53 Sunny 88 31.1 65 18.3 46 46 Calm 30.04 1017 10 16 0.00 0.00
12:53 pm 12:53 Sunny 90 32.2 63 17.2 41 41 ENE 5 7 30.04 1017 10 16 0.00 0.00
1:53 pm 13:53 Sunny 90 32.2 63 17.2 41 41 NNE 8 13 30.04 1017 10 16 0.00 0.00
2:53 pm 14:53 Mostly Sunny 91 32.8 62 16.7 38 38 N 10 17 30.04 1017 10 16 0.00 0.00
3:53 pm 15:53 Sunny 90 32.2 62 16.7 39 39 Calm 30.01 1016 10 16 0.00 0.00
4:53 pm 16:53 Sunny 91 32.8 61 16.1 37 37 NNW 9 15 30.01 1016 10 16 0.00 0.00
5:53 pm 17:53 Sunny 91 32.8 62 16.7 38 38 NNW 6 9 30.00 1016 10 16 0.00 0.00
6:53 pm 18:53 Sunny 89 31.7 63 17.2 42 42 NNW 6 9 29.99 1016 10 16 0.00 0.00
7:53 pm 19:53 Sunny 86 30 66 18.9 51 51 NNW 5 7 30.00 1016 10 16 0.00 0.00
8:53 pm 20:53 Sunny 80 26.7 68 20 67 67 Calm 30.00 1016 10 16 0.00 0.00
9:53 pm 21:53 Clear 74 23.3 68 20 82 82 Calm 30.00 1016 10 16 0.00 0.00
10:53 pm 22:53 Clear 71 21.7 67 19.4 87 87 Calm 30.02 1017 10 16 0.00 0.00
11:53 pm 23:53 Clear 72 22.2 67 19.4 84 84 NNW 3 6 30.02 1017 10 16 0.00 0.00

Powered by AerisWeather